Temp
63 63 63 63 63 63 63 63 63 63 63 63 63 63 63 63 64 61 62 72 70 70 70 66 64 63 62 59 59 54 47 42 47 48 53 55 54 56 56 54 55 59 55 54 51
62 62 63 63 63 63 63 63 63 63 63 63 63 63 63 62 60 61 71 72 72 70 68 65 61 62 57 56 57 53 44 49 53 52 52 56 56 56 53 54 53 56 55 50 51
62 62 62 62 62 62 63 62 62 62 63 62 62 62 62 59 60 65 72 72 71 70 68 67 64 62 53 53 54 51 49 52 58 58 58 56 54 58 52 54 56 59 61 52 49
62 61 61 62 62 62 62 62 62 62 62 62 62 62 61 57 55 67 71 71 70 68 67 64 61 56 53 53 57 49 55 56 58 59 56 55 56 55 55 66 62 62 59 52 49
61 61 61 61 62 62 62 62 62 62 62 62 62 62 59 56 62 65 67 68 65 66 65 63 59 57 53 53 53 51 54 58 58 57 56 57 56 55 56 63 60 60 58 55 52
61 61 61 61 61 62 62 62 62 62 62 62 62 60 56 53 67 66 65 63 63 61 61 62 60 60 54 55 54 53 55 56 56 56 57 57 60 55 62 58 60 57 57 55 53
62 61 61 61 61 62 62 62 62 62 61 61 61 58 55 62 64 64 64 62 64 62 59 59 59 58 55 52 56 53 52 52 52 53 55 54 52 50 64 56 59 56 56 56 54
61 61 60 60 61 61 61 61 61 61 61 61 61 53 56 64 61 62 62 60 62 62 61 59 61 58 54 56 54 48 45 43 52 51 53 55 48 64 59 54 57 58 56 55 57
60 60 60 60 60 60 61 61 60 60 60 60 53 52 56 64 60 63 62 62 61 59 59 66 60 55 51 46 44 40 39 40 46 54 53 51 47 58 55 54 55 56 57 59 60
60 60 60 60 60 60 60 61 59 59 58 59 62 52 59 60 60 61 58 62 58 57 56 55 50 47 42 43 38 39 36 40 41 53 45 44 46 54 59 52 54 57 59 62 63
60 60 60 60 60 61 56 53 55 53 52 57 55 56 59 58 60 57 60 60 57 53 47 48 44 42 51 47 53 42 41 40 46 52 44 46 50 53 59 58 60 60 57 61 62
60 60 60 60 60 60 52 48 45 46 46 55 54 56 57 58 55 55 60 55 51 47 46 42 41 52 51 48 45 43 43 44 51 54 45 48 49 53 53 58 61 64 64 65 65
60 60 60 60 60 55 48 47 51 48 41 50 53 53 55 58 54 54 58 52 48 44 45 48 50 51 49 45 43 43 42 46 45 46 44 42 46 49 50 51 58 61 63 63 62
60 60 59 60 56 51 49 52 51 48 38 45 50 52 53 53 49 51 51 52 46 46 44 44 51 50 43 43 47 45 47 47 43 37 37 40 38 43 52 55 56 57 59 57 60
59 59 59 60 51 51 52 51 50 47 30 48 49 56 51 50 47 48 50 50 44 44 43 45 42 41 42 48 47 46 47 43 38 35 33 34 31 39 46 48 50 54 56 59 61
58 58 59 55 51 53 52 50 49 42 31 45 48 46 45 46 45 46 47 50 47 42 42 44 44 47 47 45 46 45 42 38 33 35 29 37 37 46 42 48 48 53 57 58 58
57 57 56 58 53 55 53 51 40 35 47 44 43 44 43 43 44 43 42 40 42 38 37 40 41 42 48 43 40 42 37 28 25 22 28 37 33 50 50 52 53 59 54 55 54
56 57 56 59 58 55 54 45 35 43 41 46 45 42 42 46 46 43 38 39 40 38 35 35 38 42 45 46 42 39 40 29 21 25 36 30 30 48 53 54 51 51 52 51 53
56 56 54 56 56 55 49 38 38 44 47 46 45 39 38 41 43 40 36 37 43 45 41 34 36 40 43 44 49 38 35 44 33 27 27 39 42 51 49 50 48 50 48 51 51
49 54 53 56 56 52 44 41 42 48 48 48 41 45 37 40 43 42 41 41 42 44 47 43 36 43 40 41 42 44 44 32 30 22 23 33 39 43 50 55 49 48 48 51 53
50 47 51 54 54 46 37 41 46 50 52 48 44 43 41 42 45 43 43 42 44 43 47 45 40 39 39 38 42 35 35 37 38 32 31 30 37 55 54 48 46 49 52 52 51
48 40 51 54 42 43 41 45 48 48 49 50 48 47 45 44 43 42 41 44 50 49 43 45 40 32 37 42 42 42 40 39 32 33 34 37 39 56 58 49 49 52 56 55 53
42 41 51 50 38 40 44 44 47 46 45 46 45 45 47 43 38 43 45 51 50 48 43 43 36 31 31 35 35 34 40 41 42 39 32 29 36 55 56 55 56 53 51 52 53
40 35 43 46 46 42 41 42 41 47 45 48 46 45 42 40 43 37 39 44 44 45 46 45 39 34 29 31 39 35 39 42 39 32 34 36 40 47 51 53 56 55 51 46 40
37 36 39 33 38 40 42 40 38 39 45 46 42 42 41 35 37 35 40 38 40 41 40 40 32 35 36 38 37 35 34 36 37 40 34 38 39 45 49 40 33 38 37 37 37
34 32 37 33 38 37 38 37 36 39 41 39 39 43 41 35 36 32 32 34 34 35 35 38 29 33 30 34 35 32 33 33 33 33 32 35 36 27 29 31 31 34 36 36 37
35 36 36 33 30 31 32 37 38 38 39 39 36 35 35 35 33 36 37 36 36 34 30 31 30 26 23 31 30 24 31 36 38 35 32 26 22 26 26 27 29 31 35 35 37
MSLP
1020.63 1020.47 1020.21 1020.09 1019.94 1019.71 1019.42 1019.14 1018.91 1018.65 1018.36 1018.08 1017.76 1017.43 1017.14 1016.84 1016.38 1016.24 1015.70 1013.92 1013.88 1014.18 1014.53 1015.02 1015.22 1015.40 1015.67 1016.14 1016.56 1017.22 1018.05 1017.96 1016.74 1015.70 1014.12 1013.40 1013.46 1013.14 1013.01 1013.27 1013.38 1013.30 1013.23 1013.41 1013.86
1020.73 1020.51 1020.29 1020.05 1019.84 1019.64 1019.42 1019.17 1018.91 1018.66 1018.38 1018.03 1017.75 1017.46 1017.10 1016.88 1016.60 1015.62 1013.58 1013.47 1013.74 1014.09 1014.58 1015.02 1015.41 1015.65 1016.09 1016.28 1016.65 1017.19 1017.91 1016.82 1015.34 1014.43 1013.74 1013.35 1013.28 1013.11 1013.16 1013.14 1013.21 1013.13 1012.99 1013.61 1014.27
1020.69 1020.52 1020.26 1020.04 1019.78 1019.54 1019.34 1019.14 1018.91 1018.57 1018.26 1017.94 1017.63 1017.40 1017.09 1016.88 1016.41 1013.98 1013.01 1013.29 1013.64 1013.98 1014.28 1014.77 1015.26 1015.71 1016.34 1016.46 1016.53 1016.78 1016.69 1015.67 1014.53 1013.97 1013.57 1013.30 1013.04 1012.82 1012.94 1012.81 1012.58 1012.65 1012.55 1013.46 1014.12
1020.75 1020.47 1020.24 1019.96 1019.76 1019.45 1019.23 1019.00 1018.78 1018.47 1018.18 1017.85 1017.52 1017.17 1016.85 1016.75 1015.59 1013.14 1013.08 1013.32 1013.65 1014.04 1014.50 1014.91 1015.46 1015.94 1016.26 1016.39 1015.98 1016.58 1015.66 1015.28 1014.10 1013.72 1013.63 1013.41 1012.81 1012.73 1012.71 1010.93 1010.97 1011.33 1011.76 1012.69 1013.58
1020.64 1020.46 1020.18 1019.89 1019.58 1019.26 1018.96 1018.71 1018.53 1018.34 1018.09 1017.75 1017.44 1017.13 1016.70 1016.45 1014.66 1013.29 1013.47 1013.74 1014.05 1014.23 1014.38 1014.78 1015.31 1015.50 1015.76 1015.70 1015.78 1015.91 1015.30 1014.86 1014.02 1014.12 1013.93 1013.61 1012.88 1012.92 1011.85 1010.36 1010.73 1011.09 1011.63 1012.02 1012.53
1020.45 1020.26 1020.10 1019.81 1019.44 1019.05 1018.72 1018.46 1018.23 1018.01 1017.81 1017.66 1017.45 1017.39 1016.99 1015.88 1013.11 1013.18 1013.52 1014.18 1014.38 1014.54 1014.49 1014.64 1014.64 1014.74 1015.29 1015.38 1015.53 1015.12 1014.97 1014.54 1013.93 1013.84 1013.77 1013.81 1012.51 1012.84 1010.32 1010.07 1010.31 1010.82 1010.89 1011.17 1011.53
1020.27 1020.08 1019.88 1019.61 1019.29 1018.88 1018.43 1018.03 1017.78 1017.57 1017.39 1017.36 1017.43 1017.49 1016.81 1014.00 1012.95 1013.35 1013.70 1013.84 1013.84 1014.34 1014.72 1014.82 1014.70 1014.76 1015.01 1015.11 1014.91 1014.98 1015.13 1014.45 1013.46 1013.19 1013.31 1013.15 1013.07 1011.98 1009.47 1010.21 1010.18 1010.31 1010.35 1010.18 1010.18
1020.13 1019.90 1019.64 1019.33 1019.07 1018.65 1018.08 1017.51 1017.16 1016.87 1016.76 1016.86 1017.20 1017.47 1015.68 1013.17 1013.18 1013.47 1013.79 1013.92 1014.05 1014.21 1014.36 1014.55 1014.64 1015.10 1015.34 1015.24 1015.37 1015.67 1015.61 1015.07 1013.03 1013.37 1012.80 1013.00 1012.14 1009.54 1009.55 1010.12 1010.02 1009.61 1009.56 1009.42 1008.80
1019.95 1019.73 1019.48 1019.14 1018.84 1018.38 1017.70 1017.05 1016.57 1016.30 1016.26 1016.57 1017.17 1017.09 1015.06 1013.32 1013.29 1013.01 1013.23 1013.74 1014.08 1014.36 1014.45 1014.58 1014.78 1015.29 1015.51 1015.97 1016.66 1016.50 1016.05 1015.42 1013.97 1012.58 1012.86 1013.00 1011.61 1009.67 1009.35 1009.75 1009.73 1009.29 1008.74 1008.42 1007.68
1019.86 1019.59 1019.31 1018.99 1018.60 1018.08 1017.34 1016.67 1016.40 1016.38 1016.67 1016.72 1016.47 1016.83 1014.08 1012.88 1012.74 1013.07 1013.45 1013.68 1014.21 1014.69 1014.99 1014.96 1015.57 1015.92 1016.46 1016.61 1016.61 1016.07 1016.35 1015.46 1014.52 1012.71 1012.88 1012.70 1011.31 1010.15 1009.34 1009.48 1009.07 1008.67 1008.02 1007.35 1006.63
1019.63 1019.55 1019.26 1018.92 1018.47 1017.92 1017.32 1016.92 1017.17 1017.07 1016.60 1015.36 1014.93 1014.04 1012.86 1012.64 1012.72 1013.03 1013.15 1013.80 1014.36 1014.93 1015.44 1015.70 1016.06 1015.81 1014.91 1015.06 1014.76 1015.70 1015.69 1015.13 1013.87 1012.82 1012.92 1011.98 1011.02 1010.54 1009.53 1009.06 1008.04 1007.37 1006.78 1005.64 1005.11
1019.28 1019.10 1019.01 1018.86 1018.39 1017.90 1018.01 1018.68 1019.37 1019.80 1017.52 1014.79 1014.14 1013.80 1012.79 1012.66 1013.15 1013.54 1013.61 1014.06 1014.74 1015.09 1015.73 1016.18 1015.23 1013.92 1014.32 1014.91 1015.44 1015.64 1015.47 1014.84 1013.11 1012.67 1012.77 1011.64 1009.91 1009.61 1009.27 1007.86 1006.82 1005.47 1005.16 1004.11 1003.57
1018.88 1018.92 1018.88 1018.79 1018.42 1018.29 1019.17 1019.53 1019.51 1019.54 1018.84 1014.95 1013.85 1013.44 1012.87 1012.86 1013.07 1013.32 1013.56 1013.93 1014.56 1015.36 1014.98 1014.48 1013.83 1013.97 1014.44 1014.77 1015.44 1014.64 1015.17 1013.90 1013.56 1013.21 1012.46 1011.24 1008.13 1008.56 1007.19 1006.55 1005.46 1004.45 1003.59 1003.65 1003.37
1018.83 1018.81 1018.88 1018.75 1019.05 1018.95 1019.10 1019.31 1019.48 1019.65 1018.65 1015.05 1013.35 1012.80 1012.78 1012.66 1013.27 1013.64 1013.34 1013.98 1014.65 1014.56 1015.22 1014.54 1013.11 1013.51 1014.10 1014.45 1014.42 1013.73 1013.74 1013.99 1014.01 1014.30 1013.58 1012.10 1006.46 1007.04 1006.63 1005.55 1004.72 1003.81 1003.10 1003.02 1002.63
1018.75 1018.67 1018.86 1018.82 1019.10 1019.12 1019.26 1019.17 1019.36 1019.80 1017.57 1014.17 1013.22 1012.81 1012.86 1013.33 1013.65 1014.05 1013.91 1013.59 1014.24 1014.28 1014.89 1013.42 1013.08 1013.55 1013.90 1012.99 1013.72 1012.78 1013.22 1013.72 1014.34 1014.61 1013.95 1012.78 1011.91 1005.82 1005.07 1005.30 1004.13 1003.19 1002.95 1002.17 1001.79
1018.21 1018.43 1018.90 1019.29 1019.40 1018.87 1018.76 1019.10 1019.59 1019.12 1016.23 1013.66 1013.07 1012.95 1013.18 1013.45 1013.75 1014.04 1014.22 1014.12 1014.18 1014.54 1014.11 1013.32 1012.96 1012.78 1012.78 1012.78 1012.88 1013.06 1013.52 1014.17 1014.95 1015.15 1013.77 1011.98 1011.47 1001.49 1004.81 1004.21 1003.66 1003.23 1002.71 1002.37 1002.23
1018.22 1018.15 1018.70 1018.69 1018.85 1018.63 1018.85 1018.93 1019.61 1017.69 1014.96 1013.74 1013.48 1013.54 1013.70 1013.80 1013.92 1014.05 1014.26 1014.56 1014.54 1014.49 1014.50 1013.12 1012.82 1011.77 1011.93 1012.88 1012.97 1013.33 1014.13 1015.24 1015.22 1014.84 1012.34 1010.11 1010.04 1003.05 1003.81 1003.46 1003.06 1002.80 1003.10 1002.97 1002.74
1018.31 1018.14 1017.89 1018.31 1018.59 1018.52 1018.83 1018.89 1018.31 1015.62 1014.73 1013.49 1013.61 1013.75 1014.02 1013.84 1013.67 1014.15 1014.30 1014.46 1014.27 1014.50 1014.54 1014.02 1011.91 1011.67 1011.27 1011.52 1011.90 1013.10 1013.60 1014.34 1013.99 1013.34 1011.14 1010.43 1007.61 1002.88 1003.32 1002.73 1002.61 1002.81 1003.08 1003.08 1002.77
1018.00 1017.82 1017.97 1017.45 1018.06 1018.69 1018.70 1018.13 1015.08 1014.24 1013.61 1013.34 1013.40 1013.51 1013.58 1013.66 1013.76 1014.27 1014.81 1014.41 1013.55 1013.57 1014.04 1013.49 1011.97 1011.13 1010.87 1010.58 1010.72 1011.90 1012.49 1011.76 1012.42 1012.08 1011.72 1008.45 1005.70 1003.93 1002.46 1002.55 1002.34 1002.72 1002.82 1003.06 1002.46
1018.38 1017.82 1017.21 1017.20 1017.93 1018.40 1018.09 1015.60 1014.29 1013.21 1013.04 1013.22 1013.02 1012.86 1013.26 1013.49 1013.75 1014.01 1014.10 1013.53 1013.13 1012.67 1012.69 1012.88 1012.78 1011.52 1011.49 1011.50 1010.71 1010.99 1010.90 1011.60 1012.36 1011.68 1009.70 1007.67 1005.59 1003.35 1002.31 1001.94 1002.56 1002.59 1002.82 1002.48 1002.33
1018.74 1018.21 1016.70 1016.66 1017.87 1018.09 1016.30 1014.79 1014.22 1013.80 1013.43 1013.62 1012.86 1012.70 1012.32 1012.99 1013.29 1013.42 1013.11 1013.17 1012.86 1012.53 1012.43 1012.59 1012.92 1011.61 1011.73 1011.61 1011.33 1011.55 1011.38 1010.85 1010.29 1010.14 1008.62 1006.59 1004.67 1002.96 1001.75 1002.43 1002.45 1002.39 1002.40 1002.44 1002.80
1018.48 1018.30 1017.08 1016.66 1017.54 1016.69 1015.42 1014.50 1013.81 1013.70 1013.36 1012.95 1012.88 1012.42 1012.44 1012.72 1012.53 1013.17 1012.78 1012.13 1011.96 1012.07 1012.61 1012.67 1012.55 1012.35 1011.27 1010.71 1010.73 1010.97 1010.46 1010.65 1010.44 1008.51 1007.38 1005.87 1003.69 1002.83 1001.36 1001.91 1002.63 1002.54 1002.77 1002.69 1002.87
1018.73 1017.87 1017.15 1016.89 1016.60 1015.43 1014.84 1014.32 1014.06 1013.18 1013.59 1012.97 1012.82 1012.33 1012.35 1012.58 1012.96 1012.05 1012.05 1011.63 1012.14 1012.34 1012.18 1012.42 1012.27 1012.13 1011.89 1011.17 1010.61 1010.99 1010.06 1009.65 1009.12 1008.97 1007.69 1005.97 1003.73 1003.54 1002.97 1002.51 1002.55 1003.42 1003.73 1003.44 1003.43
1019.77 1018.72 1017.80 1017.30 1016.14 1015.66 1014.89 1013.93 1013.60 1013.15 1013.06 1013.02 1012.96 1012.71 1012.92 1012.66 1012.72 1012.78 1013.09 1012.47 1012.62 1012.58 1012.47 1013.38 1012.69 1012.80 1011.78 1011.42 1011.17 1010.86 1010.46 1009.56 1009.35 1008.52 1006.70 1005.95 1004.94 1005.36 1004.87 1004.40 1003.92 1005.14 1005.35 1006.13 1006.56
1020.25 1019.02 1018.14 1017.22 1016.46 1016.14 1015.77 1014.81 1013.84 1013.08 1013.18 1013.10 1012.86 1013.14 1013.32 1013.34 1013.45 1013.64 1013.75 1013.43 1013.26 1013.29 1013.52 1013.73 1012.47 1013.07 1012.42 1012.02 1011.66 1011.32 1010.72 1010.01 1009.11 1008.05 1007.64 1006.68 1006.76 1006.87 1007.18 1008.23 1008.61 1008.08 1008.16 1008.34 1007.84
1020.46 1019.88 1018.81 1018.15 1017.14 1016.80 1016.12 1015.10 1014.68 1013.71 1014.57 1013.79 1014.17 1013.85 1014.41 1014.34 1014.58 1014.65 1015.30 1015.20 1015.06 1014.48 1014.61 1014.92 1013.53 1013.58 1012.72 1012.05 1012.12 1011.32 1010.76 1010.04 1009.60 1009.29 1008.87 1008.34 1008.44 1011.26 1011.02 1010.63 1010.68 1010.72 1009.96 1009.59 1009.69
1020.47 1020.26 1019.83 1018.66 1018.18 1017.83 1016.74 1015.91 1015.40 1015.49 1014.85 1014.98 1014.79 1015.20 1015.43 1015.92 1016.42 1016.18 1016.42 1016.68 1016.50 1016.02 1015.39 1015.69 1014.99 1014.62 1012.89 1012.96 1012.64 1011.15 1010.07 1009.93 1009.50 1010.02 1009.93 1010.75 1012.87 1013.30 1012.99 1012.48 1012.67 1011.97 1011.49 1011.05 1010.80
Wind_Speed
13 14 14 14 14 15 15 14 14 13 12 13 13 13 13 12 8 1 6 9 5 12 5 5 2 2 3 1 2 4 3 3 6 5 5 1 3 2 1 2 4 7 4 2 3
12 13 14 15 15 15 15 15 15 15 14 13 13 12 12 12 2 7 9 5 6 13 6 7 4 3 1 1 1 5 4 9 6 4 3 3 5 4 2 5 5 6 4 3 7
9 11 13 14 15 16 15 15 15 15 15 14 13 13 12 6 4 8 5 9 13 10 5 5 5 5 1 2 4 5 7 6 7 8 4 4 3 5 4 8 10 10 10 7 8
8 10 11 13 15 16 16 16 16 15 15 14 14 14 13 1 6 1 8 9 10 6 6 5 4 4 4 5 5 3 9 6 6 4 3 5 3 6 8 21 7 14 6 7 11
7 8 11 13 14 16 17 17 16 16 15 15 13 13 2 2 11 2 5 7 6 7 8 8 6 6 6 5 2 6 5 7 9 6 7 5 11 8 11 21 9 9 8 10 12
8 9 10 11 14 16 17 18 18 16 16 13 12 10 1 4 3 7 9 6 2 4 5 7 7 7 3 5 7 2 5 8 7 7 7 6 19 6 15 7 10 7 13 11 12
9 10 10 12 14 15 17 17 18 17 16 13 9 3 2 16 1 7 8 5 6 5 2 2 2 3 2 4 3 3 8 8 6 6 9 8 12 12 25 3 12 11 11 11 15
10 10 11 12 13 15 18 18 17 18 17 11 4 2 9 1 4 5 4 1 3 3 2 1 4 2 2 4 7 4 1 5 2 7 4 8 12 24 12 7 14 14 11 11 15
9 10 11 12 13 16 19 21 17 7 2 8 5 3 10 2 2 4 5 5 5 3 3 3 4 4 2 2 5 3 6 8 13 11 6 9 10 16 4 8 12 12 12 13 15
9 9 11 12 13 17 21 17 2 4 5 2 1 2 6 7 4 4 1 6 4 5 4 3 5 2 3 4 9 10 6 7 7 8 5 6 16 13 14 7 13 15 16 20 21
9 10 11 12 13 17 10 4 4 1 1 10 8 6 3 1 3 2 4 6 4 4 7 3 5 11 22 17 13 4 7 9 9 10 2 12 16 16 19 16 21 19 19 22 22
9 8 10 12 13 14 3 5 2 1 9 8 8 9 3 1 2 2 4 6 5 7 5 1 11 20 6 4 7 8 13 17 18 17 5 17 24 15 12 19 23 26 22 24 21
10 8 8 10 12 5 3 1 1 2 2 11 5 4 4 6 8 5 10 5 5 7 11 18 10 11 9 8 5 12 11 19 18 6 6 11 21 16 11 10 18 22 19 19 20
10 8 6 9 2 0 1 3 2 1 3 9 3 2 0 2 3 2 1 4 2 10 6 10 7 12 7 7 15 21 13 13 10 2 10 3 25 4 11 18 16 19 17 14 18
10 8 5 1 2 0 1 4 4 2 7 4 2 1 0 4 1 4 2 4 4 4 4 10 2 4 7 17 9 13 6 7 3 4 6 4 5 2 5 9 13 12 11 15 15
8 6 6 1 2 2 6 6 2 4 11 5 1 1 2 2 1 2 3 4 3 2 4 11 3 6 9 5 10 3 4 4 4 3 9 11 8 22 6 8 4 6 10 11 11
8 5 8 4 3 4 4 2 4 7 4 3 1 1 1 2 2 3 4 4 5 2 5 3 6 3 6 5 2 4 5 5 5 2 13 7 6 25 8 8 9 13 10 11 11
10 7 7 3 3 4 2 3 10 4 7 3 2 1 4 6 5 3 4 4 5 1 2 4 16 9 7 10 9 8 10 9 8 9 17 7 11 18 8 9 6 6 8 9 12
10 1 3 5 6 2 3 8 9 7 8 6 3 4 4 3 2 1 5 5 6 14 11 5 11 2 5 5 10 6 7 9 3 0 3 13 19 16 8 6 3 6 7 9 9
3 2 4 7 7 3 5 17 9 7 3 2 7 7 6 6 4 4 4 3 5 10 2 2 9 3 2 1 4 6 2 2 1 5 12 8 16 18 16 17 6 8 9 9 10
2 4 1 8 6 4 11 9 9 8 5 6 5 9 8 6 8 10 5 4 4 2 7 4 4 10 1 7 17 1 5 5 0 6 17 19 13 25 28 7 7 12 13 11 8
2 5 2 8 5 4 14 7 10 16 7 15 9 12 14 13 10 7 10 10 6 5 4 7 6 7 19 6 5 5 8 5 6 11 9 16 15 13 24 10 9 18 21 14 8
3 3 2 2 9 12 8 10 15 19 12 5 10 8 7 12 11 14 18 11 8 4 4 2 3 10 6 8 3 6 11 14 17 15 20 21 18 11 19 20 18 13 9 9 8
2 3 3 6 8 11 16 18 16 7 13 13 14 8 10 12 8 5 12 6 5 4 9 6 8 16 14 11 16 17 19 20 13 13 20 20 21 17 22 25 27 16 18 21 20
1 4 2 4 9 17 17 11 19 19 7 4 5 12 13 9 12 15 15 5 3 6 4 2 15 15 21 16 16 20 25 29 31 26 23 21 25 23 22 15 18 17 19 20 20
2 2 3 5 5 6 10 22 20 24 15 21 20 18 12 7 5 3 4 2 5 1 4 2 9 13 22 22 17 18 13 15 13 16 20 24 30 22 18 20 23 18 18 20 18
2 2 2 4 3 4 8 12 9 8 4 3 3 5 8 3 3 5 6 8 10 9 6 7 6 5 20 17 14 16 18 18 21 14 10 9 8 13 18 19 19 15 19 17 16
Wind_Direction
24 17 14 9 4 360 357 356 355 353 351 347 346 345 340 335 317 175 239 218 178 160 114 114 91 97 75 43 107 122 59 257 252 185 249 236 227 199 168 249 224 212 214 309 104
16 11 5 0 356 353 351 348 348 347 344 344 342 341 338 336 275 240 244 229 162 149 112 148 162 123 38 229 168 116 147 230 217 222 238 268 198 249 275 250 247 285 244 107 142
4 359 356 354 351 345 343 342 341 340 338 336 337 336 331 327 327 247 170 173 158 161 134 147 97 118 220 150 211 183 212 221 256 231 258 249 254 215 203 264 211 215 240 180 186
345 345 343 345 345 343 337 335 334 333 332 330 332 332 324 149 290 233 154 157 149 138 121 139 129 150 197 212 202 224 248 232 254 218 256 255 268 250 186 253 208 224 219 170 193
321 318 324 331 334 336 334 331 329 326 324 325 329 337 320 13 253 111 125 135 114 140 179 170 164 168 191 201 205 221 240 252 262 272 258 308 258 248 255 256 247 249 232 217 213
298 302 307 310 319 324 325 322 320 315 315 314 320 326 180 245 233 157 138 120 167 169 189 155 201 202 215 218 188 229 259 266 272 229 240 205 270 136 262 266 259 236 252 236 219
292 299 304 304 308 312 312 311 309 305 302 299 305 291 202 234 93 154 148 179 162 165 213 247 161 160 158 292 276 299 311 310 214 223 232 163 291 227 251 232 275 266 259 257 236
294 299 302 303 305 306 306 306 303 297 293 280 236 205 243 322 114 137 154 156 103 133 136 34 127 199 195 312 360 338 326 324 317 137 241 157 250 269 247 227 263 274 270 264 260
294 298 301 305 308 308 307 307 306 314 105 131 122 170 262 116 212 209 142 156 112 85 72 99 111 175 312 86 10 326 246 222 307 202 172 183 244 260 244 198 261 269 271 271 274
292 296 301 306 310 312 314 314 226 104 89 187 250 44 274 239 189 129 152 135 118 110 63 106 64 173 40 109 228 225 225 247 238 286 185 225 250 273 294 215 246 263 266 269 272
285 298 303 308 314 319 339 4 3 322 28 193 199 218 270 62 66 151 152 102 101 95 175 221 141 200 222 206 234 172 217 236 251 253 263 256 262 260 271 281 274 263 262 262 261
266 278 298 313 321 333 37 57 55 257 310 251 249 272 264 164 298 178 126 135 154 194 118 65 219 222 230 194 205 231 255 264 271 264 238 268 267 272 260 256 258 268 268 266 268
255 267 290 311 319 45 66 94 96 135 250 290 218 205 250 150 213 233 159 147 158 176 200 226 228 217 207 223 230 227 233 253 260 302 244 283 273 244 257 262 259 268 260 271 269
257 258 276 316 338 216 256 152 87 89 311 272 259 269 285 186 237 271 135 135 235 230 217 244 242 214 185 212 205 264 221 258 259 343 270 6 297 167 247 263 260 262 269 253 266
264 256 237 346 238 334 123 124 112 66 302 264 221 335 354 151 110 354 304 98 217 195 167 250 188 180 200 231 165 251 205 209 204 201 329 196 278 174 151 263 265 272 258 259 261
249 241 175 26 18 228 125 115 63 44 251 305 291 335 111 6 42 43 49 36 124 248 227 252 326 173 216 221 189 130 90 78 68 113 271 185 184 292 164 217 255 272 270 267 298
341 235 166 158 222 133 136 81 348 221 332 292 316 31 343 242 253 179 156 174 197 330 273 298 222 229 164 233 142 140 79 314 321 99 234 148 175 253 280 237 231 276 315 300 295
337 293 198 190 158 146 85 55 230 192 250 328 274 25 228 177 234 174 120 231 236 166 299 245 288 186 170 190 186 191 168 175 213 259 275 102 248 268 241 269 278 274 270 299 313
326 192 196 187 178 191 132 216 228 195 187 211 262 232 228 262 167 166 213 255 230 187 211 214 271 259 201 163 152 173 187 225 260 142 294 267 270 290 253 273 333 326 311 299 314
341 255 204 174 163 152 233 234 230 192 163 203 199 187 212 194 199 180 204 208 236 192 158 306 293 208 35 309 263 187 155 97 292 213 242 225 258 268 278 283 272 312 296 308 344
269 258 301 135 138 222 225 231 251 238 194 213 237 239 217 227 218 245 223 275 264 231 170 181 178 262 64 209 247 222 252 230 261 192 256 258 243 264 277 239 267 318 315 300 276
230 236 144 149 187 220 234 216 230 254 237 246 255 244 255 270 253 229 222 209 202 184 206 203 208 239 264 238 233 189 241 232 238 247 239 259 252 256 267 269 288 290 293 298 301
233 254 164 241 231 227 243 246 243 252 247 233 239 220 227 252 268 244 252 249 239 284 247 127 265 275 279 294 324 214 240 237 244 262 257 262 264 274 296 292 282 283 277 270 286
316 273 205 228 247 249 250 247 249 229 247 242 251 245 263 264 251 251 272 295 2 306 327 334 253 256 272 281 297 286 284 282 249 255 259 256 272 278 279 283 294 337 8 29 33
218 235 304 227 236 247 253 270 271 270 223 222 260 242 262 259 261 264 268 330 298 19 11 229 260 274 281 293 290 283 286 284 272 262 250 261 276 277 278 353 2 20 34 22 14
230 229 319 299 308 277 241 245 261 268 269 270 268 277 270 258 264 258 16 218 266 30 19 281 282 283 273 285 278 286 278 268 278 290 279 285 285 32 18 10 3 20 18 12 1
271 295 325 259 305 263 258 258 266 326 268 294 0 307 278 327 0 328 286 255 255 270 256 255 260 252 271 278 296 281 262 277 276 352 327 316 38 8 6 2 345 7 359 357 343